Flag for Western Sahara Weather past 2 weeks in Smara, Western Sahara

Now
68 °F

Scattered clouds.


Feels Like: 68 °F
Forecast: N/A
Wind: 20 mph from Northeast

Location: Laayoune/Hassan Isl

Current Time: Feb 1, 2015 at 3:04:29 PM

Latest Report: Feb 1, 2015 at 2:00 PM


Visibility: N/A

Pressure: 30.04 "Hg

Humidity: 46%

Dew point: 46 °F

Location of SmaraLocation

Historic Weather in Smara — Graph

°F

Smara temperature yesterday

Maximum temperature yesterday: 66 °F (at 1:00 PM)
Minimum temperature yesterday: 59 °F (at 1:00 AM)
Average temperature yesterday: 62 °F

Past Weeks' High & Low Weather Summary

 TemperatureHumidityPressure
High75 °F (Jan 26, 3:00 PM)100% (Jan 26, 6:00 AM)30.39 "Hg (Jan 26, 6:00 AM)
Low50 °F (Jan 26, 6:00 AM)29% (Jan 26, 3:00 PM)30.04 "Hg (Jan 20, 6:00 AM)
Average61 °F70%30.20 "Hg
* Reported Jan 17 1:00 PM — Feb 1 1:00 PM, Smara, Weather by CustomWeather, © 2014

Note: Actual official high and low records may vary slightly from our data, if they occured in-between our weather recording intervals... More about our weather records

Advertising

Smara weather history for previous 24 hours

 ConditionsComfort  
Time TempWeatherWind HumidityBarometerVisibility
1:00 PM
Feb 1
68 °FPartly sunny.21 mph53%30.07 "Hg5 mi
12:00 PM66 °FPartly sunny.21 mph60%30.09 "Hg5 mi
11:00 AM66 °FPartly sunny.13 mph64%30.12 "Hg4 mi
10:00 AM63 °FPartly sunny.14 mph83%30.12 "Hg4 mi
9:00 AM61 °FPartly sunny.9 mph88%30.09 "Hg4 mi
8:00 AM59 °FPassing clouds.8 mph94%30.09 "Hg5 mi
7:00 AM59 °FPassing clouds.9 mph88%30.12 "Hg5 mi
6:00 AM59 °FPassing clouds.9 mph88%30.09 "Hg5 mi
5:00 AM59 °FPassing clouds.13 mph88%30.09 "Hg5 mi
2:00 AM61 °FPassing clouds.10 mph83%30.12 "Hg5 mi
1:00 AM61 °FPassing clouds.10 mph83%30.12 "Hg5 mi
12:00 AM61 °FPassing clouds.12 mph83%30.12 "Hg5 mi
11:00 PM
Jan 31
61 °FPassing clouds.13 mph77%30.12 "Hg5 mi
10:00 PM61 °FPartly cloudy.12 mph72%30.12 "HgN/A
9:00 PM61 °FPartly cloudy.14 mph72%30.12 "HgN/A
8:00 PM61 °FPartly cloudy.14 mph77%30.09 "HgN/A
7:00 PM61 °FBroken clouds.17 mph83%30.09 "HgN/A
6:00 PM61 °FBroken clouds.18 mph83%30.07 "HgN/A
4:00 PM66 °FMore clouds than sun.20 mph64%30.07 "HgN/A
3:00 PM66 °FPartly sunny.20 mph64%30.07 "HgN/A
Weather by CustomWeather, © 2014

See weather overviewHow to use our weather pages